INTELSAT 16 (IS-16) (36397 NORAD) Tracking and Keplerian Element Data

This shows tracking and keplerian element data for the satellite.

Feedback or suggestion? Click here.




ElementValue
Catalog36397
NameINTELSAT 16 (IS-16)
Epoch Orbit3225
Epoch Day349.80131028
Epoch Year2018
RAAN37.3343
Inclination0.0094
Eccentricity0.000199
Argument of Perigee218.7196
Mean Anonmoly40.6394
Mean Motion1.00272269
Decay Rate-2.32E-06
L11 36397U 10006A 18349.80131028 -.00000232 00000-0 00000+0 0 9990
L22 36397 0.0094 37.3343 0001990 218.7196 40.6394 1.00272269 32256

Live tracking and technical data element details for INTELSAT 16 (IS-16) (NORAD 36397). INTELSAT 16 (IS-16) can be tracked NOW for your location showing map with azimuth and elevation plus other details from your city location.

Track the satellite on the map from your city or location and see movement details for azimuth, elevation, latitude, longitude, range, height, and movement on the map or in text.







IsCatalogInMostPopularTable: catalog: 36397, numindb: 60
Update: records affected: 1



GetName: 36397 INTELSAT 16 (IS-16)

Hit Count: updated at: Sun, 16 Dec 2018 11:33:10 GMT